KD0RXN-4 Weather Reports


time (UTC)temp
F
wind
direction
speed
knots
gust
knots
rain 1hr
in
rain 24hr
in
rain mn
in
humidity
%
barometer
mb
20260510060018 64 57 0.0 0.0 0.00 0.01 0.00 68 1011.4
20260510055529 65 57 0.0 0.0 0.00 0.01 0.00 67 1011.4
20260510055033 65 57 0.0 0.0 0.00 0.01 0.00 66 1011.4
20260510054518 65 57 0.0 0.0 0.00 0.01 0.00 65 1011.4
20260510054024 66 57 0.0 0.0 0.00 0.01 0.00 65 1011.3
20260510053529 66 57 0.0 0.0 0.00 0.01 0.00 64 1011.3
20260510053035 66 57 0.0 0.0 0.00 0.01 0.00 63 1011.3
20260510052521 66 57 0.0 0.0 0.00 0.02 0.00 64 1011.2
20260510052025 67 57 0.0 0.0 0.00 0.02 0.00 63 1011.3
20260510051531 67 57 0.0 0.0 0.00 0.02 0.00 64 1011.3
20260510051057 67 57 0.0 0.0 0.00 0.02 0.00 63 1011.4
20260510050540 67 57 0.0 0.0 0.00 0.02 0.00 64 1011.4
20260510050030 67 57 0.0 0.0 0.00 0.02 0.00 64 1011.4
20260510045535 67 57 0.0 0.0 0.00 0.02 0.00 63 1011.4
20260510045038 67 57 0.0 0.0 0.00 0.02 0.00 62 1011.3
20260510044523 67 57 0.0 0.0 0.00 0.02 0.00 63 1011.2
20260510044029 67 57 0.0 0.0 0.00 0.02 0.00 62 1011.1
20260510043534 67 25 0.0 0.0 0.00 0.02 0.00 62 1011.1
20260510043038 67 25 0.0 0.0 0.00 0.02 0.00 61 1011.1
20260510042544 67 19 0.0 0.0 0.00 0.02 0.00 61 1011.1
20260510042025 67 28 0.0 0.0 0.00 0.02 0.00 61 1011.0
20260510041532 67 28 0.0 0.0 0.00 0.02 0.00 61 1011.0
20260510041056 67 23 0.0 0.0 0.00 0.02 0.00 61 1011.0
20260510040540 68 71 0.0 0.0 0.00 0.02 0.00 60 1011.0
20260510040028 68 57 0.0 0.0 0.00 0.02 0.00 58 1010.7
20260510035553 68 213 0.0 0.0 0.00 0.02 0.00 57 1010.2
20260510035035 68 194 0.0 0.0 0.00 0.02 0.00 58 1010.0
20260510034541 68 194 0.0 0.0 0.00 0.02 0.00 59 1010.0
20260510034026 68 194 0.0 0.0 0.00 0.02 0.00 60 1009.9
20260510033532 68 194 0.0 0.0 0.00 0.02 0.00 61 1009.8
20260510033037 68 194 0.0 0.0 0.00 0.02 0.00 61 1009.8
20260510032544 68 194 0.0 0.0 0.00 0.07 0.00 62 1009.9
20260510032025 68 194 0.0 0.0 0.00 0.07 0.00 63 1009.8
20260510031531 68 194 0.0 0.0 0.00 0.07 0.00 62 1009.8
20260510031036 68 194 0.0 0.0 0.00 0.07 0.00 63 1009.8
20260510030542 68 194 0.0 0.0 0.00 0.07 0.00 62 1009.8
20260510030030 68 194 0.0 0.0 0.00 0.07 0.00 60 1009.8
20260510025536 68 194 0.0 0.0 0.00 0.07 0.00 60 1009.7
20260510025038 69 194 0.0 0.0 0.00 0.07 0.00 59 1009.6
20260510024524 69 194 0.0 0.0 0.00 0.07 0.00 59 1009.5
20260510024027 70 194 0.0 0.0 0.00 0.07 0.00 59 1009.4
20260510023528 70 194 0.0 0.0 0.00 0.07 0.00 59 1009.4
20260510023033 70 194 0.0 0.0 0.00 0.07 0.00 58 1009.3
20260510022558 71 194 0.0 0.0 0.00 0.35 0.00 57 1009.1
20260510022040 71 194 0.0 0.0 0.00 0.35 0.00 55 1009.0
20260510021526 72 194 0.0 0.0 0.00 0.35 0.00 53 1008.9
20260510021047 72 194 0.0 0.0 0.00 0.35 0.00 52 1008.7
20260510020548 72 194 0.0 0.0 0.00 0.35 0.00 52 1008.7
20260510020032 73 194 0.0 0.0 0.00 0.35 0.00 50 1008.5
20260510015559 73 194 0.0 0.0 0.00 0.35 0.00 50 1008.3
20260510015023 74 194 0.0 0.0 0.00 0.35 0.00 51 1008.1
20260510014529 74 194 0.0 0.0 0.00 0.35 0.00 49 1008.1
20260510014034 74 194 0.0 0.0 0.00 0.35 0.00 48 1008.1
20260510013539 75 194 0.0 0.0 0.00 0.35 0.00 47 1008.0
20260510013024 75 194 0.0 0.0 0.00 0.35 0.00 47 1008.0
20260510012529 76 194 0.0 0.0 0.00 0.35 0.00 46 1007.9
20260510012032 76 194 0.0 0.0 0.00 0.35 0.00 45 1007.9
20260510011558 77 194 0.0 0.0 0.00 0.35 0.00 45 1007.8
20260510011041 77 194 0.0 0.0 0.00 0.35 0.00 43 1007.8
20260510010527 77 194 0.0 0.0 0.00 0.35 0.00 42 1007.7
20260510010032 78 194 0.0 0.0 0.00 0.35 0.00 41 1007.6
20260510005537 78 194 0.0 0.0 0.00 0.35 0.00 40 1007.6
20260510005025 78 194 0.0 0.0 0.00 0.35 0.00 39 1007.5
20260510004530 79 194 0.0 0.0 0.00 0.35 0.00 38 1007.4
20260510004035 79 194 0.0 0.0 0.00 0.35 0.00 37 1007.4
20260510003541 79 194 0.0 0.0 0.00 0.35 0.00 36 1007.4
20260510003026 80 194 0.0 0.0 0.00 0.35 0.00 36 1007.4
20260510002532 80 194 0.0 0.0 0.00 0.35 0.00 36 1007.4
20260510002035 80 174 0.0 0.0 0.00 0.35 0.00 35 1007.4
20260510001540 80 174 0.0 0.0 0.00 0.35 0.00 35 1007.4
20260510001026 80 200 0.0 0.0 0.00 0.35 0.00 33 1007.4
20260510000531 80 187 0.0 0.0 0.00 0.35 0.00 33 1007.5
20260510000056 81 194 0.0 0.0 0.00 0.35 0.00 33 1007.5
20260509235544 81 210 0.0 0.0 0.00 0.35 0.00 32 1007.4
20260509235026 81 203 0.0 0.0 0.00 0.35 0.00 34 1007.4
20260509234531 81 250 0.0 0.0 0.00 0.35 0.00 33 1007.4
20260509234036 82 199 0.0 0.0 0.00 0.35 0.00 31 1007.4
20260509233523 82 245 0.0 0.0 0.00 0.35 0.00 31 1007.4
20260509233030 82 234 0.0 0.0 0.00 0.35 0.00 32 1007.4
20260509232534 82 244 0.0 0.0 0.00 0.35 0.00 32 1007.3
20260509232040 82 254 0.0 0.0 0.00 0.35 0.00 32 1007.3
20260509231526 81 262 0.0 0.0 0.00 0.35 0.00 33 1007.4
20260509231034 81 201 0.0 0.0 0.00 0.35 0.00 33 1007.4
20260509230525 81 230 0.0 0.0 0.00 0.35 0.00 34 1007.5
20260509230051 82 185 0.0 0.0 0.00 0.35 0.00 33 1007.5
20260509225536 82 225 0.0 0.9 0.00 0.35 0.00 34 1007.4
20260509225040 82 196 0.0 0.9 0.00 0.35 0.00 32 1007.4
20260509224526 81 212 0.0 0.9 0.00 0.35 0.00 32 1007.4
20260509224032 82 231 0.0 0.9 0.00 0.35 0.00 31 1007.4
20260509223538 82 215 0.0 1.7 0.00 0.35 0.00 31 1007.4
20260509223044 83 241 0.0 1.7 0.00 0.35 0.00 32 1007.4
20260509222529 83 245 0.0 0.9 0.00 0.35 0.00 31 1007.5
20260509222035 84 190 0.0 0.9 0.00 0.35 0.00 28 1007.4
20260509221539 84 215 0.0 0.0 0.00 0.35 0.00 29 1007.4
20260509221023 84 227 0.0 0.0 0.00 0.35 0.00 30 1007.4
20260509220533 83 250 0.0 1.7 0.00 0.35 0.00 30 1007.4
20260509220101 84 240 0.0 1.7 0.00 0.35 0.00 29 1007.5
20260509215523 84 271 0.0 0.0 0.00 0.35 0.00 29 1007.4
20260509215029 84 197 0.0 0.9 0.00 0.35 0.00 28 1007.4
20260509214536 85 241 0.0 0.9 0.00 0.35 0.00 28 1007.4
20260509214101 85 283 0.0 0.9 0.00 0.35 0.00 29 1007.4
20260509213526 84 67 0.0 0.9 0.00 0.35 0.00 31 1007.4
20260509213033 84 203 0.0 0.9 0.00 0.35 0.00 29 1007.5
20260509212539 84 245 0.0 1.7 0.00 0.35 0.00 31 1007.5
20260509212025 84 236 0.0 1.7 0.00 0.35 0.00 30 1007.5
20260509211531 83 238 0.0 0.9 0.00 0.35 0.00 32 1007.5
20260509211037 82 259 0.0 0.9 0.00 0.35 0.00 31 1007.6
20260509210527 83 227 0.0 1.7 0.00 0.35 0.00 31 1007.7
20260509210053 84 221 0.0 1.7 0.00 0.35 0.00 31 1007.7
20260509205538 83 284 0.0 3.5 0.00 0.35 0.00 31 1007.7
20260509205022 83 213 0.0 3.5 0.00 0.35 0.00 33 1007.8
20260509204549 84 247 0.0 0.9 0.00 0.35 0.00 33 1007.8
20260509204034 83 244 0.0 0.9 0.00 0.35 0.00 32 1007.8
20260509203540 83 259 0.0 0.9 0.00 0.35 0.00 34 1007.8
20260509203026 83 230 0.0 0.9 0.00 0.35 0.00 33 1008.0
20260509202531 82 283 0.0 1.7 0.00 0.35 0.00 32 1007.9
20260509202036 83 194 0.0 0.9 0.00 0.35 0.00 31 1008.0
20260509201544 83 218 0.0 0.9 0.00 0.35 0.00 32 1008.1
20260509201029 83 286 0.0 1.7 0.00 0.35 0.00 31 1008.2
20260509200555 82 271 0.0 2.6 0.00 0.35 0.00 32 1008.2
20260509200023 82 189 0.9 2.6 0.00 0.35 0.00 32 1008.2
20260509195530 82 244 0.0 3.5 0.00 0.35 0.00 32 1008.4
20260509195035 83 202 0.9 3.5 0.00 0.35 0.00 31 1008.3
20260509194521 83 183 0.0 1.7 0.00 0.35 0.00 32 1008.4
20260509194048 83 288 0.0 1.7 0.00 0.35 0.00 32 1008.3
20260509193533 84 284 0.0 1.7 0.00 0.35 0.00 32 1008.3
20260509193038 84 232 0.0 1.7 0.00 0.35 0.00 32 1008.4
20260509192525 83 235 0.0 1.7 0.00 0.35 0.00 32 1008.4
20260509192031 83 259 0.0 0.9 0.00 0.35 0.00 34 1008.3
20260509191537 83 303 0.0 0.9 0.00 0.35 0.00 32 1008.4
20260509191027 83 220 0.0 1.7 0.00 0.35 0.00 31 1008.4
20260509190533 83 244 0.0 1.7 0.00 0.35 0.00 31 1008.4
20260509190039 83 199 0.0 0.9 0.00 0.35 0.00 32 1008.4
20260509185524 83 192 0.0 2.6 0.00 0.35 0.00 35 1008.4
20260509185030 84 229 0.0 2.6 0.00 0.35 0.00 34 1008.4
20260509184536 84 208 0.0 1.7 0.00 0.35 0.00 35 1008.5
20260509184042 84 225 0.0 0.9 0.00 0.35 0.00 34 1008.5
20260509183547 85 210 0.0 0.9 0.00 0.35 0.00 34 1008.4
20260509183033 84 312 0.0 2.6 0.00 0.35 0.00 34 1008.5
20260509182539 84 198 0.0 2.6 0.00 0.35 0.00 33 1008.5
20260509182025 83 236 0.0 0.0 0.00 0.35 0.00 36 1008.6
20260509181531 83 208 0.0 0.0 0.00 0.35 0.00 38 1008.6
20260509181040 82 250 0.0 0.9 0.00 0.35 0.00 38 1008.6
20260509180527 81 240 0.0 1.7 0.00 0.35 0.00 39 1008.6
20260509180032 81 263 0.0 1.7 0.00 0.35 0.00 37 1008.6
20260509175538 82 252 0.0 0.0 0.00 0.35 0.00 35 1008.6
20260509175044 83 257 0.0 0.0 0.00 0.35 0.00 36 1008.7
20260509174529 82 253 0.0 0.0 0.00 0.35 0.00 35 1008.7
20260509174035 82 113 0.0 0.0 0.00 0.35 0.00 37 1008.8
20260509173521 81 268 0.0 0.9 0.00 0.35 0.00 41 1008.8
20260509173027 80 257 0.0 1.7 0.00 0.35 0.00 41 1008.8
20260509172553 80 251 0.0 2.6 0.00 0.35 0.00 39 1008.9
20260509172038 80 225 0.0 2.6 0.00 0.35 0.00 40 1009.0
20260509171529 81 229 0.0 0.0 0.00 0.35 0.00 40 1008.9
20260509171035 80 252 0.0 0.0 0.00 0.35 0.00 43 1008.9
20260509170540 80 355 0.0 0.9 0.00 0.35 0.00 42 1009.0
20260509170026 79 117 0.0 0.9 0.00 0.35 0.00 41 1009.1
20260509165552 79 252 0.0 0.9 0.00 0.35 0.00 45 1009.1
20260509165035 78 234 0.0 0.9 0.00 0.35 0.00 44 1009.1
20260509164601 78 248 0.0 0.9 0.00 0.35 0.00 44 1009.1
20260509164026 77 254 0.0 0.9 0.00 0.35 0.00 49 1009.2
20260509163532 77 217 0.0 0.9 0.00 0.35 0.00 49 1009.2
20260509163038 76 244 0.0 3.5 0.00 0.35 0.00 50 1009.3
20260509162525 76 271 0.0 3.5 0.00 0.35 0.00 49 1009.2
20260509162029 76 198 0.0 1.7 0.00 0.35 0.00 52 1009.2
20260509161539 75 261 0.0 1.7 0.00 0.35 0.00 51 1009.2
20260509161025 75 232 0.0 1.7 0.00 0.35 0.00 52 1009.3
20260509160531 74 263 0.0 3.5 0.00 0.35 0.00 54 1009.3
20260509160037 74 244 0.0 3.5 0.00 0.35 0.00 54 1009.3
20260509155523 73 260 0.0 1.7 0.00 0.35 0.00 57 1009.2
20260509155047 73 214 0.0 0.9 0.00 0.35 0.00 57 1009.2
20260509154552 72 227 0.0 0.9 0.00 0.35 0.00 60 1009.1
20260509154037 72 216 0.0 0.9 0.00 0.35 0.00 62 1009.2
20260509153523 71 221 0.0 0.9 0.00 0.35 0.00 65 1009.1
20260509153029 71 244 0.0 0.9 0.00 0.35 0.00 65 1009.1
20260509152535 70 265 0.0 0.9 0.00 0.35 0.35 68 1009.1
20260509152023 70 218 0.0 0.9 0.00 0.35 0.35 69 1009.1
20260509151549 69 231 0.0 0.0 0.00 0.35 0.35 71 1009.2
20260509151034 68 223 0.0 0.9 0.00 0.35 0.35 74 1009.1
20260509150539 68 209 0.0 0.9 0.00 0.35 0.35 73 1009.1
20260509150024 67 250 0.0 0.9 0.00 0.35 0.35 77 1009.2
20260509145529 67 234 0.0 0.9 0.00 0.35 0.35 78 1009.2
20260509145032 67 229 0.0 0.9 0.00 0.35 0.35 80 1009.1
20260509144558 66 229 0.0 0.9 0.00 0.35 0.35 81 1009.1
20260509144022 65 215 0.0 0.9 0.00 0.35 0.35 82 1009.1
20260509143528 65 209 0.0 0.9 0.00 0.35 0.35 85 1009.1
20260509143034 64 239 0.0 0.9 0.01 0.35 0.35 85 1009.0
20260509142540 63 210 0.0 0.9 0.01 0.35 0.35 86 1009.0
20260509142025 62 216 0.0 1.7 0.01 0.35 0.35 87 1008.9
20260509141530 62 227 0.0 1.7 0.01 0.35 0.35 89 1008.9
20260509141052 61 248 0.0 1.7 0.01 0.35 0.35 89 1008.9
20260509140535 60 218 0.0 0.9 0.01 0.35 0.35 90 1008.8
20260509140038 60 228 0.0 0.0 0.01 0.35 0.35 91 1008.8
20260509135522 59 252 0.0 0.0 0.01 0.35 0.35 91 1008.8
20260509135045 59 207 0.0 0.0 0.01 0.35 0.35 91 1008.7
20260509134529 59 213 0.0 0.0 0.01 0.35 0.35 91 1008.7
20260509134030 58 208 0.0 0.9 0.01 0.35 0.35 91 1008.7
20260509133537 58 229 0.0 0.9 0.01 0.35 0.35 91 1008.7
20260509133042 58 217 0.0 0.0 0.00 0.34 0.34 91 1008.7
20260509132526 57 203 0.0 0.0 0.00 0.34 0.34 91 1008.6
20260509132029 57 190 0.0 0.9 0.00 0.34 0.34 91 1008.6
20260509131555 57 200 0.0 2.6 0.00 0.34 0.34 91 1008.6
20260509131034 57 237 0.0 2.6 0.00 0.34 0.34 91 1008.5
20260509130522 57 233 0.0 0.0 0.00 0.34 0.34 91 1008.6
20260509130026 56 179 0.0 0.0 0.00 0.34 0.34 91 1008.5
20260509125529 56 234 0.0 0.0 0.00 0.34 0.34 91 1008.5
20260509125031 56 232 0.0 0.0 0.00 0.34 0.34 91 1008.5
20260509124537 56 190 0.0 0.0 0.00 0.34 0.34 91 1008.5
20260509124038 56 200 0.0 0.0 0.00 0.34 0.34 91 1008.4
20260509123544 55 230 0.0 0.0 0.00 0.34 0.34 91 1008.4
20260509123029 55 194 0.0 0.0 0.00 0.34 0.34 91 1008.4
20260509122533 55 205 0.0 0.0 0.00 0.34 0.34 91 1008.4
20260509122035 55 199 0.0 0.0 0.00 0.34 0.34 91 1008.3
20260509121601 55 198 0.0 0.0 0.00 0.34 0.34 91 1008.3
20260509121025 55 198 0.0 0.0 0.00 0.34 0.34 91 1008.3
20260509120551 55 198 0.0 0.0 0.00 0.34 0.34 91 1008.2
20260509120037 55 201 0.0 0.0 0.00 0.34 0.34 91 1008.2
20260509115523 55 205 0.0 0.0 0.00 0.34 0.34 91 1008.2
20260509115027 55 230 0.0 0.0 0.00 0.34 0.34 91 1008.2
20260509114532 55 231 0.0 0.0 0.00 0.34 0.34 91 1008.1
20260509114040 55 240 0.0 0.0 0.00 0.34 0.34 91 1008.1
20260509113526 54 211 0.0 0.0 0.00 0.34 0.34 91 1008.1
20260509113052 55 196 0.0 0.0 0.00 0.34 0.34 91 1007.9
20260509112538 55 223 0.0 0.0 0.00 0.34 0.34 91 1007.8
20260509112022 55 230 0.0 0.0 0.00 0.34 0.34 91 1007.8
20260509111529 54 228 0.0 0.0 0.00 0.34 0.34 91 1007.8
20260509111055 54 223 0.0 0.0 0.00 0.34 0.34 91 1007.8
20260509110523 54 223 0.0 0.0 0.00 0.34 0.34 91 1007.8
20260509110029 54 221 0.0 0.0 0.00 0.34 0.34 91 1007.7
20260509105536 54 221 0.0 0.0 0.00 0.34 0.34 91 1007.7
20260509105039 54 221 0.0 0.0 0.00 0.34 0.34 91 1007.7
20260509104524 54 221 0.0 0.0 0.00 0.34 0.34 91 1007.8
20260509104030 54 221 0.0 0.0 0.00 0.34 0.34 91 1007.8
20260509103536 54 221 0.0 0.0 0.00 0.34 0.34 91 1007.7
20260509103021 54 221 0.0 0.0 0.00 0.34 0.34 91 1007.7
20260509102527 54 221 0.0 0.0 0.00 0.34 0.34 91 1007.7
20260509102032 54 221 0.0 0.0 0.00 0.34 0.34 91 1007.7
20260509101559 54 221 0.0 0.0 0.00 0.34 0.34 91 1007.8
20260509101045 54 221 0.0 0.0 0.00 0.34 0.34 91 1007.8
20260509100529 54 221 0.0 0.0 0.00 0.34 0.34 91 1007.8
20260509100021 54 221 0.0 0.0 0.00 0.34 0.34 91 1007.9
20260509095528 54 221 0.0 0.0 0.00 0.34 0.34 91 1007.9
20260509095054 54 221 0.0 0.0 0.00 0.34 0.34 91 1007.9
20260509094540 54 221 0.0 0.0 0.00 0.34 0.34 91 1007.9
20260509094045 54 218 0.0 0.0 0.00 0.34 0.34 91 1007.9
20260509093531 54 218 0.0 0.0 0.00 0.34 0.34 91 1008.0
20260509093039 54 218 0.0 0.0 0.00 0.34 0.34 91 1007.9
20260509092525 54 216 0.0 0.0 0.00 0.34 0.34 91 1008.0
20260509092029 54 216 0.0 0.0 0.00 0.34 0.34 91 1008.0
20260509091535 55 216 0.0 0.0 0.00 0.34 0.34 91 1008.0
20260509091021 55 213 0.0 0.0 0.00 0.34 0.34 91 1008.0
20260509090531 55 213 0.0 0.0 0.00 0.34 0.34 91 1008.0
20260509090035 55 213 0.0 0.0 0.00 0.34 0.34 91 1007.9
20260509085559 55 213 0.0 0.0 0.00 0.34 0.34 91 1007.9
20260509085044 55 213 0.0 0.0 0.00 0.34 0.34 91 1007.8
20260509084526 55 213 0.0 0.0 0.00 0.34 0.34 91 1007.8
20260509084031 55 210 0.0 0.0 0.00 0.34 0.34 91 1007.8
20260509083537 54 200 0.0 0.0 0.00 0.34 0.34 91 1007.6
20260509083023 55 198 0.0 0.0 0.00 0.34 0.34 91 1007.6
20260509082529 55 198 0.0 0.0 0.00 0.34 0.34 91 1007.7
20260509082034 54 197 0.0 0.0 0.00 0.34 0.34 91 1007.7
20260509081601 54 196 0.0 0.0 0.00 0.34 0.34 91 1007.7
20260509081025 54 196 0.0 0.0 0.00 0.34 0.34 91 1007.6
20260509080535 54 196 0.0 0.0 0.00 0.34 0.34 91 1007.7
20260509080021 55 196 0.0 0.0 0.00 0.34 0.34 91 1007.6
20260509075527 55 205 0.0 0.0 0.00 0.34 0.34 91 1007.6
20260509075029 55 215 0.0 0.0 0.00 0.34 0.34 91 1007.6
20260509074535 55 227 0.0 0.0 0.00 0.34 0.34 91 1007.6
20260509074101 54 231 0.0 0.0 0.00 0.34 0.34 91 1007.6
20260509073526 54 231 0.0 0.0 0.00 0.34 0.34 91 1007.6
20260509073032 55 213 0.0 0.0 0.00 0.34 0.34 91 1007.6
20260509072534 55 213 0.0 0.0 0.00 0.34 0.34 91 1007.7
20260509072105 55 212 0.0 0.0 0.00 0.34 0.34 91 1007.7
20260509071526 55 212 0.0 0.0 0.00 0.34 0.34 91 1007.6
20260509071032 55 212 0.0 0.0 0.00 0.34 0.34 91 1007.6
20260509070523 55 211 0.0 0.0 0.00 0.34 0.34 91 1007.5
20260509070048 55 233 0.0 0.0 0.00 0.34 0.34 91 1007.7
20260509065552 55 222 0.0 0.0 0.00 0.34 0.34 91 1007.6
20260509065055 55 234 0.0 0.0 0.00 0.34 0.34 91 1007.6
20260509064540 55 186 0.0 0.0 0.00 0.34 0.34 91 1007.7
20260509064023 56 219 0.0 0.0 0.00 0.34 0.34 91 1007.7
20260509063529 56 199 0.0 0.0 0.00 0.34 0.34 91 1007.6
20260509063035 56 227 0.0 0.0 0.00 0.34 0.34 91 1007.6
20260509062601 56 227 0.0 0.0 0.00 0.34 0.34 91 1007.6
20260509062023 56 227 0.0 0.0 0.00 0.34 0.34 91 1007.7
20260509061529 56 227 0.0 0.0 0.00 0.34 0.34 91 1007.7
20260509061035 56 227 0.0 0.0 0.00 0.34 0.34 90 1007.7
20260509060541 56 227 0.0 0.0 0.00 0.34 0.34 91 1007.7